Location: Santaluz Observatory
(32.9930°N, 117.1510°W)
Time: 16:29:00

Hubble Space Telescope - Visible Passes

Search period start: 18 March 2018 00:00
Search period end: 28 March 2018 00:00
Orbit: 537 x 541 km, 28.5° (Epoch: 18 March)

Date Brightness Start Highest point End Pass type
(mag) Time Alt. Az. Time Alt. Az. Time Alt. Az.
18 Mar 1.8 19:31:15 10° WSW 19:35:07 38° S 19:38:58 10° ESE visible
18 Mar 3.3 21:13:02 10° WSW 21:14:22 15° SW 21:14:22 15° SW visible
19 Mar 2.0 19:21:00 10° WSW 19:24:47 34° SSW 19:28:33 10° SE visible
19 Mar 3.2 21:03:09 10° WSW 21:04:48 14° SW 21:04:48 14° SW visible
20 Mar 3.3 20:53:35 10° SW 20:55:07 12° SSW 20:55:16 12° SSW visible
